Beatrice, NE

2:10 AM CST on December 14, 2019 (GMT -0600)
Beatrice Municipal

Weather History for KBIE - October, 2019

Change the Weather History Date:

Thursday, October 24, 2019

  Actual Average Record
Temperature  
Mean Temperature 39 °F -  
Max Temperature 49 °F 62 °F 82 °F (2011)
Min Temperature 29 °F 40 °F 19 °F (1999)
Degree Days  
Heating Degree Days 26    
Moisture  
Dew Point 29 °F    
Average Humidity 65    
Maximum Humidity 89    
Minimum Humidity 40    
Precipitation  
Precipitation 0.00 in - - ()
Sea Level Pressure  
Sea Level Pressure 30.37 in    
Wind  
Wind Speed 11 mph (North)    
Max Wind Speed 18 mph    
Max Gust Speed 26 mph    
Visibility 10 miles    
Events      
Averages and records for this station are not official NWS values.
T = Trace of Precipitation, MM = Missing Value Source: NWS Daily Summary

Daily Weather History Graph

Daily Weather History Graph

Search for Another Location

Airport or City:

Astronomy

Oct. 24, 2019 Rise Set
Actual Time 7:47 AM CDT 6:34 PM CDT
Civil Twilight 7:19 AM CDT 7:02 PM CDT
Nautical Twilight 6:47 AM CDT 7:33 PM CDT
Astronomical Twilight 6:16 AM CDT 8:05 PM CDT
Moon 3:17 AM CDT (10/24) 5:03 PM CDT (10/24)
Length of Visible Light 11h 42m
Length of Day
10h 47m
Waning Crescent, 16% of the Moon is Illuminated
Oct 24
Waning Crescent
Oct 27
New
Nov 4
First Quarter
Nov 12
Full
Nov 19
Last Quarter

Hourly Weather History & Observations

Time (CDT) Temp. Windchill Dew Point Humidity Pressure Visibility Wind Dir Wind Speed Gust Speed Precip Events Conditions
12:15 AM 43.0 °F 34.8 °F 38.3 °F 84% 30.27 in 10.0 mi North 18.4 mph 25.3 mph N/A   Overcast
12:35 AM 42.3 °F 33.8 °F 37.9 °F 85% 30.29 in 10.0 mi North 18.4 mph 26.5 mph N/A   Overcast
12:55 AM 41.0 °F 32.5 °F 36.3 °F 83% 30.29 in 10.0 mi North 17.3 mph 25.3 mph N/A   Overcast
1:35 AM 40.8 °F 33.3 °F 32.9 °F 73% 30.30 in 10.0 mi North 13.8 mph 21.9 mph N/A   Overcast
1:55 AM 40.6 °F 32.3 °F 32.2 °F 72% 30.30 in 10.0 mi North 16.1 mph 24.2 mph N/A   Overcast
2:15 AM 40.3 °F 32.2 °F 32.4 °F 73% 30.31 in 10.0 mi North 15.0 mph 24.2 mph N/A   Overcast
2:35 AM 40.1 °F 31.3 °F 32.9 °F 75% 30.32 in 10.0 mi North 17.3 mph 24.2 mph N/A   Overcast
2:55 AM 40.1 °F 32.4 °F 33.1 °F 76% 30.31 in 10.0 mi North 13.8 mph 20.7 mph N/A   Overcast
3:15 AM 40.1 °F 32.4 °F 32.5 °F 74% 30.31 in 10.0 mi North 13.8 mph 17.3 mph N/A   Overcast
3:35 AM 40.3 °F 31.9 °F 32.9 °F 75% 30.32 in 10.0 mi North 16.1 mph 20.7 mph N/A   Overcast
3:55 AM 40.1 °F 31.3 °F 32.4 °F 74% 30.32 in 10.0 mi North 17.3 mph 20.7 mph N/A   Overcast
4:15 AM 39.9 °F 32.1 °F 31.1 °F 71% 30.31 in 10.0 mi North 13.8 mph 21.9 mph N/A   Mostly Cloudy
4:35 AM 39.2 °F 32.5 °F 31.3 °F 73% 30.31 in 10.0 mi North 10.4 mph - N/A   Scattered Clouds
4:55 AM 39.2 °F 32.5 °F 30.7 °F 72% 30.31 in 10.0 mi North 10.4 mph 18.4 mph N/A   Clear
5:15 AM 38.8 °F 31.2 °F 29.3 °F 69% 30.33 in 10.0 mi North 12.7 mph - N/A   Clear
5:35 AM 38.5 °F 32.1 °F 28.9 °F 69% 30.35 in 10.0 mi North 9.2 mph - N/A   Clear
5:55 AM 37.9 °F 30.5 °F 28.9 °F 70% 30.35 in 10.0 mi North 11.5 mph - N/A   Clear
6:15 AM 37.6 °F 30.5 °F 29.3 °F 72% 30.37 in 10.0 mi NNW 10.4 mph - N/A   Clear
6:35 AM 37.0 °F 31.0 °F 29.3 °F 74% 30.37 in 10.0 mi North 8.1 mph - N/A   Clear
6:55 AM 36.5 °F 30.3 °F 29.3 °F 75% 30.37 in 10.0 mi North 8.1 mph - N/A   Clear
7:15 AM 35.2 °F 28.8 °F 29.3 °F 79% 30.37 in 10.0 mi NNW 8.1 mph - N/A   Clear
7:35 AM 35.2 °F 30.3 °F 29.3 °F 79% 30.38 in 10.0 mi NNW 5.8 mph - N/A   Clear
7:55 AM 34.5 °F 30.4 °F 29.7 °F 82% 30.39 in 10.0 mi NW 4.6 mph - N/A   Clear
8:15 AM 34.9 °F 29.9 °F 30.2 °F 83% 30.40 in 10.0 mi NNW 5.8 mph - N/A   Clear
8:35 AM 35.8 °F 30.9 °F 30.7 °F 82% 30.41 in 10.0 mi NNW 5.8 mph - N/A   Clear
8:55 AM 36.7 °F 29.9 °F 30.2 °F 77% 30.42 in 10.0 mi NNW 9.2 mph - N/A   Clear
9:15 AM 36.7 °F 29.9 °F 30.0 °F 77% 30.44 in 10.0 mi NNW 9.2 mph - N/A   Clear
9:35 AM 37.8 °F 31.3 °F 30.6 °F 75% 30.45 in 10.0 mi NNW 9.2 mph - N/A   Clear
9:55 AM 38.5 °F 31.1 °F 30.0 °F 72% 30.44 in 10.0 mi North 11.5 mph - N/A   Clear
10:15 AM 40.1 °F 32.7 °F 29.5 °F 66% 30.44 in 10.0 mi North 12.7 mph - N/A   Clear
10:35 AM 41.9 °F 35.0 °F 28.4 °F 59% 30.43 in 10.0 mi North 12.7 mph 16.1 mph N/A   Clear
10:55 AM 42.1 °F 36.6 °F 27.9 °F 57% 30.44 in 10.0 mi North 9.2 mph 18.4 mph N/A   Clear
11:15 AM 43.9 °F 37.5 °F 27.7 °F 53% 30.45 in 10.0 mi North 12.7 mph 17.3 mph N/A   Clear
11:35 AM 44.1 °F 38.6 °F 27.5 °F 52% 30.44 in 10.0 mi NNE 10.4 mph 16.1 mph N/A   Clear
11:55 AM 44.6 °F 39.2 °F 27.9 °F 52% 30.44 in 10.0 mi NNE 10.4 mph 17.3 mph N/A   Scattered Clouds
12:15 PM 45.1 °F 40.8 °F 27.9 °F 51% 30.44 in 10.0 mi NNE 8.1 mph 16.1 mph N/A   Scattered Clouds
12:35 PM 45.1 °F 40.8 °F 28.2 °F 52% 30.44 in 10.0 mi North 8.1 mph - N/A   Scattered Clouds
12:55 PM 45.9 °F 43.6 °F 28.0 °F 50% 30.44 in 10.0 mi NNE 4.6 mph - N/A   Scattered Clouds
1:15 PM 46.8 °F - 28.4 °F 49% 30.42 in 10.0 mi North 10.4 mph 16.1 mph N/A   Scattered Clouds
1:35 PM 46.9 °F - 27.5 °F 47% 30.40 in 10.0 mi NNE 11.5 mph 17.3 mph N/A   Clear
1:55 PM 48.0 °F - 27.5 °F 45% 30.40 in 10.0 mi NNE 11.5 mph 17.3 mph N/A   Clear
2:15 PM 47.8 °F - 26.1 °F 43% 30.39 in 10.0 mi NNE 8.1 mph 17.3 mph N/A   Clear
2:35 PM 48.7 °F - 27.0 °F 43% 30.37 in 10.0 mi North 8.1 mph 17.3 mph N/A   Clear
2:55 PM 49.1 °F - 25.7 °F 40% 30.35 in 10.0 mi North 8.1 mph 20.7 mph N/A   Clear
3:15 PM 49.6 °F - 26.2 °F 40% 30.33 in 10.0 mi NNE 11.5 mph 19.6 mph N/A   Clear
3:35 PM 49.1 °F - 25.9 °F 40% 30.33 in 10.0 mi North 10.4 mph 17.3 mph N/A   Clear
3:55 PM 49.1 °F - 25.7 °F 40% 30.34 in 10.0 mi North 8.1 mph - N/A   Clear
4:15 PM 48.7 °F - 26.1 °F 41% 30.35 in 10.0 mi NNE 12.7 mph 17.3 mph N/A   Clear
4:35 PM 48.7 °F - 25.5 °F 40% 30.36 in 10.0 mi North 8.1 mph - N/A   Clear
4:55 PM 48.6 °F - 26.1 °F 42% 30.37 in 10.0 mi NNE 6.9 mph - N/A   Clear
5:15 PM 47.3 °F - 24.8 °F 41% 30.37 in 10.0 mi North 8.1 mph - N/A   Clear
5:35 PM 46.9 °F - 25.9 °F 44% 30.37 in 10.0 mi NNE 6.9 mph - N/A   Clear
5:55 PM 46.2 °F 44.1 °F 26.6 °F 46% 30.37 in 10.0 mi NNE 4.6 mph - N/A   Clear
6:15 PM 45.5 °F 44.2 °F 27.0 °F 48% 30.37 in 10.0 mi NNE 3.5 mph - N/A   Clear
6:35 PM 43.9 °F 42.3 °F 27.3 °F 52% 30.39 in 10.0 mi NNE 3.5 mph - N/A   Clear
6:55 PM 43.2 °F 41.5 °F 27.3 °F 54% 30.38 in 10.0 mi NNE 3.5 mph - N/A   Clear
7:15 PM 41.9 °F - 27.0 °F 55% 30.38 in 10.0 mi Calm Calm - N/A   Clear
7:35 PM 40.3 °F - 28.2 °F 62% 30.39 in 10.0 mi Calm Calm - N/A   Clear
7:55 PM 38.5 °F - 28.9 °F 69% 30.40 in 10.0 mi Calm Calm - N/A   Clear
8:15 PM 37.6 °F - 29.5 °F 73% 30.39 in 10.0 mi Calm Calm - N/A   Clear
8:35 PM 38.7 °F - 29.3 °F 69% 30.40 in 10.0 mi Calm Calm - N/A   Clear
8:55 PM 36.7 °F - 29.8 °F 76% 30.39 in 10.0 mi Calm Calm - N/A   Clear
9:15 PM 33.4 °F - 29.3 °F 85% 30.39 in 10.0 mi Calm Calm - N/A   Clear
9:35 PM 33.3 °F - 27.9 °F 81% 30.39 in 10.0 mi Calm Calm - N/A   Clear
9:55 PM 32.4 °F - 27.5 °F 82% 30.39 in 10.0 mi Calm Calm - N/A   Clear
10:15 PM 32.9 °F - 27.3 °F 80% 30.40 in 10.0 mi Calm Calm - N/A   Clear
10:35 PM 32.5 °F - 28.2 °F 84% 30.39 in 10.0 mi Calm Calm - N/A   Clear
10:55 PM 31.8 °F - 28.2 °F 87% 30.39 in 10.0 mi Calm Calm - N/A   Clear
11:15 PM 30.9 °F - 27.3 °F 86% 30.39 in 10.0 mi Calm Calm - N/A   Clear
11:35 PM 29.7 °F - 26.8 °F 89% 30.39 in 10.0 mi Calm Calm - N/A   Clear
11:55 PM 29.5 °F - 26.6 °F 89% 30.39 in 10.0 mi Calm Calm - N/A   Clear